STARLINK-34242

Last updated on Sat Jul 19 2025 00:02:08 GMT+0000 (Coordinated Universal Time)

1 64727U 25144D 25199.58335648 -.01571155 00000+0 -13393-1 0 9996 2 64727 53.1586 192.2193 0001022 58.2844 31.9044 15.71681543 3846
UTC large
Height (km)
Speed (km/s)
/
Latitude / Longitude
Inclination (degrees)
Orbital Period (minutes)
Azimuth
Elevation
Range (km)
Doppler Factor

Next 0 passes for location: London (51.5072 / 0.1276)

Sorry there are no passes over London.